K1VL Weather Reports


Display with metric or nautical units.
time (UTC)temp
F
wind
direction
speed
MPH
gust
MPH
rain 1hr
in
rain 24hr
in
rain mn
in
humidity
%
barometer
mb
20260509021516 34 0.0 0.0 0.00 0.00 0.00 88 1012.6
20260509021016 35 0.0 1.0 0.00 0.00 0.00 87 1012.6
20260509020536 35 0.0 1.0 0.00 0.00 0.00 87 1012.5
20260509020016 35 0.0 1.0 0.00 0.00 0.00 87 1012.5
20260509015516 35 0.0 1.0 0.00 0.00 0.00 86 1012.4
20260509015016 36 0.0 1.0 0.00 0.00 0.00 85 1012.4
20260509014536 36 0.0 1.0 0.00 0.00 0.00 85 1012.3
20260509014016 36 0.0 0.0 0.00 0.00 0.00 84 1012.2
20260509013516 37 0.0 0.0 0.00 0.00 0.00 84 1012.2
20260509013036 37 0.0 0.0 0.00 0.00 0.00 83 1012.1
20260509012516 37 0.0 1.0 0.00 0.00 0.00 82 1012.0
20260509012016 38 0.0 1.0 0.00 0.00 0.00 81 1011.9
20260509011516 38 0.0 1.0 0.00 0.00 0.00 80 1011.8
20260509011036 39 0.0 0.0 0.00 0.00 0.00 78 1011.8
20260509010516 40 0.0 0.0 0.00 0.00 0.00 78 1011.7
20260509010129 40 0.0 1.0 0.00 0.00 0.00 75 1011.6
20260509005516 41 0.0 0.0 0.00 0.00 0.00 73 1011.5
20260509005056 41 0.0 1.0 0.00 0.00 0.00 70 1011.5
20260509004536 42 0.0 0.0 0.00 0.00 0.00 70 1011.4
20260509004016 43 0.0 1.0 0.00 0.00 0.00 68 1011.3
20260509003516 43 0.0 1.0 0.00 0.00 0.00 68 1011.3
20260509003036 43 0.0 2.0 0.00 0.00 0.00 69 1011.2
20260509002516 43 0.0 0.0 0.00 0.00 0.00 70 1011.2
20260509002016 43 0.0 0.0 0.00 0.00 0.00 71 1011.1
20260509001516 43 0.0 2.0 0.00 0.00 0.00 69 1011.1
20260509001016 43 0.0 2.0 0.00 0.00 0.00 69 1011.1
20260509000516 43 0.0 0.0 0.00 0.00 0.00 69 1011.1
20260509000016 44 0.0 1.0 0.00 0.00 0.00 68 1011.1
20260508235543 44 248 1.0 3.0 0.00 0.00 0.00 68 1011.0
20260508235016 44 315 1.0 3.0 0.00 0.00 0.00 67 1010.9
20260508234516 44 0.0 4.0 0.00 0.00 0.00 68 1010.9
20260508234016 44 0.0 2.0 0.00 0.00 0.00 67 1010.8
20260508233516 44 0.0 0.0 0.00 0.00 0.00 66 1010.9
20260508233016 44 0.0 1.0 0.00 0.00 0.00 65 1010.9
20260508232516 44 0.0 3.0 0.00 0.00 0.00 66 1010.7
20260508232036 44 315 1.0 3.0 0.00 0.00 0.00 65 1010.8
20260508231517 45 135 1.0 4.0 0.00 0.00 0.00 65 1010.7
20260508231016 45 0.0 2.0 0.00 0.00 0.00 64 1010.8
20260508230516 45 180 1.0 4.0 0.00 0.00 0.00 63 1010.7
20260508230017 45 180 2.0 8.0 0.00 0.00 0.00 63 1010.6
20260508225536 45 225 1.0 3.0 0.00 0.00 0.00 64 1010.7
20260508225016 45 203 2.0 7.0 0.00 0.00 0.00 63 1010.6
20260508224516 45 225 2.0 6.0 0.00 0.00 0.00 64 1010.6
20260508224016 45 225 3.0 8.0 0.00 0.00 0.00 63 1010.5
20260508223516 46 225 2.0 6.0 0.00 0.00 0.00 63 1010.6
20260508223016 46 180 2.0 5.0 0.00 0.00 0.00 64 1010.4
20260508222516 46 225 2.0 6.0 0.00 0.00 0.00 64 1010.4
20260508222036 46 225 2.0 6.0 0.00 0.00 0.00 63 1010.4
20260508221537 46 225 3.0 9.0 0.00 0.00 0.00 61 1010.4
20260508221016 46 225 3.0 9.0 0.00 0.00 0.00 58 1010.4
20260508220516 47 158 2.0 6.0 0.00 0.00 0.00 53 1010.3
20260508220016 47 225 1.0 5.0 0.00 0.00 0.00 49 1010.3
20260508215516 47 315 2.0 5.0 0.00 0.00 0.00 48 1010.2
20260508215016 47 0.0 5.0 0.00 0.00 0.00 48 1010.1
20260508214516 48 270 1.0 3.0 0.00 0.00 0.00 49 1010.0
20260508214036 48 293 1.0 5.0 0.00 0.00 0.00 48 1010.0
20260508213516 48 338 2.0 7.0 0.00 0.00 0.00 47 1010.0
20260508213016 48 315 2.0 5.0 0.00 0.00 0.00 46 1009.9
20260508212516 48 315 5.0 10.0 0.00 0.00 0.00 46 1009.9
20260508212016 48 315 2.0 7.0 0.00 0.00 0.00 46 1009.9
20260508211516 48 293 2.0 5.0 0.00 0.00 0.00 46 1009.9
20260508211016 48 315 2.0 5.0 0.00 0.00 0.00 46 1009.8
20260508210516 48 315 2.0 6.0 0.00 0.00 0.00 46 1009.9
20260508210016 48 315 2.0 10.0 0.00 0.00 0.00 47 1009.9
20260508205536 48 315 2.0 8.0 0.00 0.00 0.00 46 1009.9
20260508205016 48 315 3.0 11.0 0.00 0.00 0.00 43 1009.8
20260508204516 49 315 3.0 5.0 0.00 0.00 0.00 44 1009.8
20260508204036 50 315 2.0 7.0 0.00 0.00 0.00 42 1009.7
20260508203516 49 315 1.0 7.0 0.00 0.00 0.00 47 1009.7
20260508203016 49 315 2.0 7.0 0.00 0.00 0.00 46 1009.7
20260508202516 49 45 1.0 6.0 0.00 0.00 0.00 43 1009.7
20260508202016 49 293 2.0 8.0 0.00 0.00 0.00 43 1009.6
20260508201536 49 315 3.0 12.0 0.00 0.00 0.00 44 1009.6
20260508201016 50 315 6.0 13.0 0.00 0.00 0.00 42 1009.5
20260508200516 49 270 3.0 10.0 0.00 0.00 0.00 45 1009.5
20260508200016 48 315 6.0 12.0 0.00 0.00 0.00 45 1009.6
20260508195536 49 315 8.0 15.0 0.00 0.00 0.00 44 1009.6
20260508195016 49 293 2.0 7.0 0.00 0.00 0.00 46 1009.5
20260508194516 48 315 2.0 6.0 0.00 0.00 0.00 47 1009.6
20260508194016 48 315 5.0 12.0 0.00 0.00 0.00 46 1009.7
20260508193516 49 315 4.0 9.0 0.00 0.00 0.00 45 1009.6
20260508193036 48 0.0 2.0 0.00 0.00 0.00 48 1009.7
20260508192516 48 315 3.0 8.0 0.00 0.00 0.00 50 1009.7
20260508192037 48 315 3.0 7.0 0.00 0.00 0.00 48 1009.7
20260508191516 47 315 2.0 7.0 0.00 0.00 0.00 49 1009.6
20260508191036 47 315 5.0 10.0 0.00 0.00 0.00 47 1009.7
20260508190516 48 315 4.0 11.0 0.00 0.00 0.00 46 1009.7
20260508190016 48 293 4.0 8.0 0.00 0.00 0.00 45 1009.7
20260508185516 49 315 5.0 12.0 0.00 0.00 0.00 45 1009.7
20260508185016 50 203 3.0 9.0 0.00 0.00 0.00 44 1009.7
20260508184516 51 180 3.0 11.0 0.00 0.00 0.00 49 1009.6
20260508184117 50 293 2.0 7.0 0.00 0.00 0.00 46 1009.7
20260508183516 49 203 2.0 6.0 0.00 0.00 0.00 48 1009.8
20260508183016 48 293 3.0 14.0 0.00 0.00 0.00 47 1009.9
20260508182516 48 315 3.0 10.0 0.00 0.00 0.00 48 1010.0
20260508182016 48 293 3.0 10.0 0.00 0.00 0.00 46 1009.9
20260508181517 48 315 2.0 6.0 0.00 0.00 0.00 47 1010.0
20260508181036 48 225 3.0 10.0 0.00 0.00 0.00 50 1009.9
20260508180516 48 315 4.0 9.0 0.00 0.00 0.00 45 1009.9
20260508180037 48 270 3.0 9.0 0.00 0.00 0.00 46 1009.9
20260508175516 48 158 3.0 11.0 0.00 0.00 0.00 47 1009.9
20260508175016 48 180 2.0 7.0 0.00 0.00 0.00 45 1009.9
20260508174537 48 158 3.0 8.0 0.00 0.00 0.00 44 1009.8
20260508174016 48 315 2.0 5.0 0.00 0.00 0.00 47 1009.8
20260508173516 47 315 5.0 11.0 0.00 0.00 0.00 49 1009.9
20260508173016 48 293 3.0 11.0 0.00 0.00 0.00 46 1009.9
20260508172516 47 315 4.0 11.0 0.00 0.00 0.00 48 1009.9
20260508172016 47 315 4.0 12.0 0.00 0.00 0.00 45 1009.9
20260508171517 47 315 3.0 14.0 0.00 0.00 0.00 46 1009.8
20260508171016 47 315 4.0 10.0 0.00 0.00 0.00 47 1009.9
20260508170517 47 315 3.0 8.0 0.00 0.00 0.00 47 1009.8
20260508170036 46 315 4.0 14.0 0.00 0.00 0.00 46 1009.8
20260508165557 46 315 3.0 9.0 0.00 0.00 0.00 48 1009.9
20260508165037 46 315 5.0 12.0 0.00 0.00 0.00 46 1010.0
20260508164516 46 315 5.0 12.0 0.00 0.00 0.00 47 1010.0
20260508164016 46 315 4.0 11.0 0.00 0.00 0.00 48 1010.0
20260508163516 46 315 6.0 14.0 0.00 0.00 0.00 47 1010.1
20260508163037 47 315 5.0 13.0 0.00 0.00 0.00 47 1010.1
20260508162516 46 68 1.0 4.0 0.00 0.00 0.00 53 1010.1
20260508162036 46 338 1.0 4.0 0.00 0.00 0.00 50 1010.1
20260508161516 45 293 4.0 10.0 0.00 0.00 0.00 49 1010.1
20260508161016 46 315 6.0 13.0 0.00 0.00 0.00 47 1010.1
20260508160516 46 338 2.0 6.0 0.00 0.00 0.00 49 1010.1
20260508160037 46 315 3.0 7.0 0.00 0.00 0.00 48 1010.1
20260508155516 46 315 4.0 11.0 0.00 0.00 0.00 48 1010.0
20260508155016 46 315 3.0 8.0 0.00 0.00 0.00 47 1010.1
20260508154516 46 315 3.0 10.0 0.00 0.00 0.00 48 1010.1
20260508154016 46 315 6.0 14.0 0.00 0.00 0.00 48 1010.0
20260508153516 47 315 3.0 12.0 0.00 0.00 0.00 50 1010.0
20260508153016 47 248 3.0 7.0 0.00 0.00 0.00 49 1010.0
20260508152516 46 315 3.0 7.0 0.00 0.00 0.00 53 1009.9
20260508152016 46 338 3.0 7.0 0.00 0.00 0.00 48 1009.9
20260508151516 46 315 4.0 13.0 0.00 0.00 0.00 48 1009.8
20260508151016 46 225 3.0 11.0 0.00 0.00 0.00 49 1009.8
20260508150516 46 203 3.0 14.0 0.00 0.00 0.00 47 1009.8
20260508150016 46 338 3.0 11.0 0.00 0.00 0.00 51 1009.7
20260508145516 45 315 7.0 16.0 0.00 0.00 0.00 51 1009.9
20260508145017 45 315 6.0 13.0 0.00 0.00 0.00 49 1009.9
20260508144517 44 315 2.0 9.0 0.00 0.00 0.00 55 1009.9
20260508144016 44 315 3.0 9.0 0.00 0.00 0.00 55 1009.9
20260508143516 44 315 3.0 8.0 0.00 0.00 0.00 51 1009.9
20260508143016 44 315 4.0 11.0 0.00 0.00 0.00 51 1009.8
20260508142516 45 315 10.0 20.0 0.00 0.00 0.00 49 1009.9
20260508142016 45 315 6.0 14.0 0.00 0.00 0.00 48 1009.9
20260508141516 46 315 4.0 11.0 0.00 0.00 0.00 49 1010.0
20260508141017 46 315 2.0 8.0 0.00 0.00 0.00 50 1009.8
20260508140516 45 338 2.0 5.0 0.00 0.00 0.00 52 1009.9
20260508140037 44 315 2.0 9.0 0.00 0.00 0.00 53 1009.9
20260508135517 44 293 3.0 12.0 0.00 0.00 0.00 53 1009.9
20260508135016 44 293 4.0 11.0 0.00 0.00 0.00 53 1010.0
20260508134516 44 315 4.0 9.0 0.00 0.00 0.00 57 1010.0
20260508134016 44 315 3.0 9.0 0.00 0.00 0.00 56 1010.0
20260508133516 43 315 6.0 12.0 0.00 0.00 0.00 56 1010.1
20260508133016 43 315 7.0 15.0 0.00 0.00 0.00 57 1010.1
20260508132516 43 315 3.0 11.0 0.00 0.00 0.00 54 1010.1
20260508132036 43 315 4.0 9.0 0.00 0.00 0.00 56 1010.2
20260508131516 43 315 3.0 9.0 0.00 0.00 0.00 57 1010.2
20260508131016 43 315 2.0 6.0 0.00 0.00 0.00 58 1010.2
20260508130536 42 293 3.0 10.0 0.00 0.00 0.00 61 1010.2
20260508130016 42 225 1.0 6.0 0.00 0.00 0.00 63 1010.2
20260508125516 41 293 2.0 9.0 0.00 0.00 0.00 64 1010.3
20260508125016 41 315 2.0 5.0 0.00 0.00 0.00 62 1010.3
20260508124516 40 315 2.0 6.0 0.00 0.00 0.00 65 1010.2
20260508124016 40 315 2.0 8.0 0.00 0.00 0.00 66 1010.3
20260508123517 40 293 1.0 3.0 0.00 0.00 0.00 65 1010.3
20260508123016 40 293 2.0 8.0 0.00 0.00 0.00 67 1010.3
20260508122557 40 315 3.0 8.0 0.00 0.00 0.00 64 1010.3
20260508122016 40 315 4.0 9.0 0.00 0.00 0.00 66 1010.3
20260508121523 40 315 2.0 6.0 0.00 0.00 0.00 65 1010.4
20260508121016 40 315 1.0 4.0 0.00 0.00 0.00 67 1010.3
20260508120516 41 315 1.0 6.0 0.00 0.00 0.00 65 1010.4
20260508120016 41 0.0 4.0 0.00 0.00 0.00 70 1010.3
20260508115557 40 293 1.0 4.0 0.00 0.00 0.00 69 1010.3
20260508115016 40 0.0 3.0 0.00 0.00 0.00 73 1010.3
20260508114516 39 248 1.0 7.0 0.00 0.00 0.00 75 1010.2
20260508114016 38 315 2.0 7.0 0.00 0.00 0.00 76 1010.3
20260508113516 37 0.0 1.0 0.00 0.00 0.00 84 1010.2
20260508113016 37 0.0 1.0 0.00 0.00 0.00 89 1010.3
20260508112516 36 0.0 0.0 0.00 0.00 0.00 92 1010.2
20260508112016 35 0.0 1.0 0.00 0.00 0.00 91 1010.1
20260508111516 34 0.0 0.0 0.00 0.00 0.00 93 1010.1
20260508111016 34 0.0 0.0 0.00 0.00 0.00 92 1010.1
20260508110516 34 0.0 0.0 0.00 0.00 0.00 92 1010.1
20260508110016 33 0.0 1.0 0.00 0.00 0.00 93 1010.0
20260508105536 32 0.0 0.0 0.00 0.00 0.00 94 1010.0
20260508105017 32 0.0 1.0 0.00 0.00 0.00 94 1010.0
20260508104516 31 0.0 1.0 0.00 0.00 0.00 95 1009.9
20260508104016 30 0.0 1.0 0.00 0.00 0.00 96 1009.9
20260508103516 29 0.0 0.0 0.00 0.00 0.00 96 1009.9
20260508103016 28 0.0 0.0 0.00 0.00 0.00 96 1009.8
20260508102516 28 0.0 1.0 0.00 0.00 0.00 96 1009.8
20260508102016 28 0.0 0.0 0.00 0.00 0.00 96 1009.9
20260508101516 28 0.0 0.0 0.00 0.00 0.00 96 1009.8
20260508101016 28 0.0 0.0 0.00 0.00 0.00 96 1009.7
20260508100516 28 0.0 0.0 0.00 0.00 0.00 96 1009.6
20260508100016 28 0.0 1.0 0.00 0.00 0.00 96 1009.5
20260508095536 28 0.0 0.0 0.00 0.00 0.00 96 1009.5
20260508095036 28 0.0 0.0 0.00 0.00 0.00 96 1009.5
20260508094516 28 0.0 0.0 0.00 0.00 0.00 96 1009.4
20260508094017 28 0.0 0.0 0.00 0.00 0.00 96 1009.4
20260508093536 28 0.0 0.0 0.00 0.00 0.00 96 1009.5
20260508093037 28 0.0 0.0 0.00 0.00 0.00 96 1009.4
20260508092516 28 0.0 0.0 0.00 0.00 0.00 96 1009.4
20260508092016 28 0.0 0.0 0.00 0.00 0.00 96 1009.4
20260508091516 28 0.0 0.0 0.00 0.00 0.00 96 1009.4
20260508091017 28 0.0 0.0 0.00 0.00 0.00 96 1009.3
20260508090516 28 0.0 0.0 0.00 0.00 0.00 96 1009.3
20260508090016 28 0.0 0.0 0.00 0.00 0.00 96 1009.3
20260508085537 27 0.0 0.0 0.00 0.00 0.00 96 1009.2
20260508085037 27 0.0 0.0 0.00 0.00 0.00 96 1009.3
20260508084557 27 0.0 1.0 0.00 0.00 0.00 96 1009.2
20260508084057 27 0.0 0.0 0.00 0.00 0.00 96 1009.2
20260508083516 27 0.0 1.0 0.00 0.00 0.00 96 1009.1
20260508083016 27 0.0 0.0 0.00 0.00 0.00 96 1009.0
20260508082516 27 0.0 0.0 0.00 0.00 0.00 96 1009.0
20260508082017 27 0.0 1.0 0.00 0.00 0.00 96 1009.0
20260508081516 27 0.0 0.0 0.00 0.00 0.00 96 1009.0
20260508081016 27 0.0 1.0 0.00 0.00 0.00 96 1009.0
20260508080516 27 0.0 1.0 0.00 0.00 0.00 96 1009.0
20260508080016 27 0.0 0.0 0.00 0.00 0.00 96 1009.0
20260508075537 27 0.0 0.0 0.00 0.00 0.00 96 1008.9
20260508075016 27 0.0 0.0 0.00 0.00 0.00 96 1008.9
20260508074537 27 0.0 0.0 0.00 0.00 0.00 96 1009.0
20260508074016 27 0.0 0.0 0.00 0.00 0.00 96 1008.9
20260508073516 27 0.0 1.0 0.00 0.00 0.00 95 1008.9
20260508073016 27 0.0 0.0 0.00 0.00 0.00 95 1008.9
20260508072516 27 0.0 0.0 0.00 0.00 0.00 95 1008.9
20260508072016 27 0.0 0.0 0.00 0.00 0.00 95 1008.8
20260508071537 28 0.0 0.0 0.00 0.00 0.00 95 1008.8
20260508071036 28 0.0 0.0 0.00 0.00 0.00 95 1008.9
20260508070516 28 0.0 1.0 0.00 0.00 0.00 95 1008.9
20260508070016 28 0.0 0.0 0.00 0.00 0.00 95 1008.9
20260508065536 28 0.0 0.0 0.00 0.00 0.00 95 1008.9
20260508065016 28 0.0 0.0 0.00 0.00 0.00 95 1009.0
20260508064516 28 0.0 1.0 0.00 0.00 0.00 95 1009.0
20260508064037 28 0.0 0.0 0.00 0.00 0.00 95 1009.0
20260508063516 28 0.0 0.0 0.00 0.00 0.00 95 1009.0
20260508063057 28 0.0 0.0 0.00 0.00 0.00 95 1009.1
20260508062536 28 0.0 0.0 0.00 0.00 0.00 95 1009.1
20260508062017 28 0.0 0.0 0.00 0.00 0.00 94 1009.1
20260508061520 28 0.0 0.0 0.00 0.00 0.00 94 1009.1
20260508061021 28 0.0 0.0 0.00 0.00 0.00 94 1009.1
20260508060541 28 0.0 0.0 0.00 0.00 0.00 94 1009.1
20260508060041 28 0.0 1.0 0.00 0.00 0.00 94 1009.1
20260508055517 28 0.0 0.0 0.00 0.00 0.00 94 1009.1
20260508055016 28 0.0 0.0 0.00 0.00 0.00 93 1009.2
20260508054516 29 0.0 0.0 0.00 0.00 0.00 93 1009.2
20260508054057 29 0.0 0.0 0.00 0.00 0.00 93 1009.2
20260508053516 29 0.0 0.0 0.00 0.00 0.00 93 1009.1
20260508053016 29 0.0 0.0 0.00 0.00 0.00 93 1009.1
20260508052516 29 0.0 0.0 0.00 0.00 0.00 93 1009.1
20260508052016 29 0.0 0.0 0.00 0.00 0.00 93 1009.2
20260508051516 29 0.0 0.0 0.00 0.00 0.00 93 1009.2
20260508051016 29 0.0 0.0 0.00 0.00 0.00 93 1009.1
20260508050516 29 0.0 0.0 0.00 0.00 0.00 93 1009.1
20260508050016 29 0.0 1.0 0.00 0.00 0.00 92 1009.2
20260508045530 29 0.0 1.0 0.00 0.00 0.00 93 1009.3
20260508045037 29 0.0 0.0 0.00 0.00 0.00 93 1009.5
20260508044517 29 0.0 0.0 0.00 0.00 0.00 93 1009.6
20260508044017 29 0.0 0.0 0.00 0.00 0.00 93 1009.6
20260508043516 29 0.0 0.0 0.00 0.00 0.00 92 1009.6
20260508043036 29 0.0 0.0 0.00 0.00 0.00 92 1009.6
20260508042536 29 0.0 0.0 0.00 0.00 0.00 92 1009.6
20260508042016 30 0.0 0.0 0.00 0.00 0.00 92 1009.6
20260508041516 30 0.0 0.0 0.00 0.00 0.00 92 1009.6
20260508041016 30 0.0 0.0 0.00 0.00 0.00 91 1009.6
20260508040516 30 0.0 1.0 0.00 0.00 0.00 91 1009.5
20260508040016 30 0.0 1.0 0.00 0.00 0.00 91 1009.6
20260508035517 30 0.0 1.0 0.00 0.00 0.00 91 1009.6
20260508035016 30 0.0 0.0 0.00 0.00 0.00 90 1009.7
20260508034536 31 0.0 0.0 0.00 0.00 0.00 90 1009.7
20260508034016 31 0.0 1.0 0.00 0.00 0.00 89 1009.7
20260508033516 31 0.0 0.0 0.00 0.00 0.00 89 1009.6
20260508033017 31 0.0 0.0 0.00 0.00 0.00 88 1009.5
20260508032516 31 0.0 0.0 0.00 0.00 0.00 89 1009.6
20260508032016 31 0.0 0.0 0.00 0.00 0.00 89 1009.6
20260508031516 31 0.0 0.0 0.00 0.00 0.00 88 1009.6
20260508031016 32 0.0 0.0 0.00 0.00 0.00 88 1009.6
20260508030516 32 0.0 0.0 0.00 0.00 0.00 88 1009.6
20260508030016 32 0.0 0.0 0.00 0.00 0.00 87 1009.5
20260508025517 32 0.0 0.0 0.00 0.00 0.00 87 1009.6
20260508025016 32 0.0 0.0 0.00 0.00 0.00 86 1009.5
20260508024516 32 0.0 0.0 0.00 0.00 0.00 85 1009.5
20260508024017 33 0.0 0.0 0.00 0.00 0.00 85 1009.5
20260508023537 33 0.0 0.0 0.00 0.00 0.00 85 1009.5
20260508023017 33 0.0 0.0 0.00 0.00 0.00 85 1009.5
20260508022516 33 0.0 0.0 0.00 0.00 0.00 84 1009.5
20260508022016 34 0.0 0.0 0.00 0.00 0.00 83 1009.4